GEFSSGP_500_meanwind_324.txt.gz
Wind_Speed
13 14 14 15 17 16 16 16 15 14 14 13 12 11 11 10 9 8 8 8 7 6 6 6 6 7 7 7 7 7 7 8 9 10 10 10 10 10 9 9 9 9 9 9 8 8 7 7 7
14 14 15 16 17 17 17 17 16 15 14 14 13 12 11 10 10 9 8 8 7 6 6 7 7 7 7 7 7 8 8 9 9 10 11 10 10 10 10 10 9 9 9 9 8 8 8 7 7
15 15 15 17 17 17 17 17 16 15 14 13 13 12 11 10 9 9 8 8 7 7 6 7 8 8 8 7 7 8 9 9 9 10 10 9 10 10 10 9 9 8 9 8 8 8 7 7 7
15 15 15 16 18 18 17 16 16 16 14 13 13 12 12 11 10 9 9 8 8 7 7 8 9 9 9 8 8 8 8 8 8 8 9 9 9 9 9 9 8 8 8 8 7 7 6 6 7
15 14 15 16 17 18 17 16 16 16 15 13 12 12 12 11 10 9 9 9 8 8 8 8 9 9 8 8 8 9 9 9 9 8 8 8 8 9 9 9 8 8 7 7 7 6 6 5 5
14 15 15 16 17 17 17 17 17 16 15 14 12 12 12 11 11 10 10 10 9 9 9 9 9 9 9 9 9 9 9 8 8 9 9 8 8 8 9 8 8 8 7 7 7 6 5 4 4
14 15 15 16 17 17 17 16 16 16 15 14 12 11 11 11 11 10 10 10 10 10 10 10 9 9 10 9 10 10 10 9 9 9 8 8 8 9 8 7 8 8 8 7 6 5 4 4 3
13 13 14 15 16 17 16 16 16 15 14 14 13 12 11 11 10 10 10 10 10 11 11 11 10 10 10 10 9 9 10 9 9 8 8 8 8 9 8 7 7 7 7 7 6 5 4 3 3
12 12 13 14 15 16 16 16 16 14 13 13 13 13 12 11 11 11 10 11 11 11 12 11 10 10 10 10 10 9 9 8 8 7 8 7 8 8 7 6 6 6 7 6 5 5 5 4 3
11 11 12 13 14 15 16 16 15 14 13 13 13 12 12 11 11 10 10 11 11 11 11 10 10 10 10 10 10 9 9 8 7 7 7 7 6 7 7 6 6 6 6 6 5 5 5 4 3
9 10 11 11 13 14 15 15 15 14 13 13 13 12 12 12 11 10 10 11 11 11 11 10 10 10 9 9 8 8 8 7 6 6 6 6 5 6 6 6 6 5 5 6 6 6 5 5 4
7 8 9 10 11 12 13 14 15 14 14 13 13 12 12 12 11 10 10 11 11 11 11 11 11 10 9 9 8 8 7 6 6 5 5 4 4 5 5 6 6 5 5 5 6 6 5 5 5
6 6 7 8 10 11 11 12 13 13 13 13 12 11 11 11 11 10 10 11 11 11 11 11 10 10 9 8 8 8 6 5 4 5 4 3 3 3 3 5 6 6 6 6 6 6 6 6 6
4 4 5 7 8 9 9 10 11 12 12 12 11 10 10 11 11 11 11 11 10 10 11 10 10 9 9 9 8 7 6 5 4 4 3 3 2 2 3 4 5 6 6 6 7 7 7 7 7
2 2 3 5 7 8 7 8 9 11 11 11 11 10 10 10 10 10 10 10 10 10 10 9 9 8 8 8 7 7 6 5 5 4 3 2 1 2 2 3 4 4 5 6 8 8 8 8 7
1 1 2 3 5 5 6 7 8 9 10 10 10 9 9 9 9 9 9 9 9 9 9 9 8 8 7 8 8 7 6 5 5 4 3 2 1 1 2 3 3 4 5 6 7 7 7 7 7
3 3 1 1 2 2 4 5 6 7 8 8 8 8 8 8 8 8 8 8 8 8 8 8 8 8 8 8 7 6 6 5 4 4 3 3 3 2 1 2 2 3 3 4 5 5 6 6 7
4 4 3 2 1 1 1 2 3 4 5 6 6 6 6 6 7 7 7 7 7 8 8 8 8 7 7 7 7 7 6 5 4 3 3 3 3 3 3 1 2 3 3 4 4 5 6 6 7
5 5 5 4 3 3 2 2 2 2 2 3 4 4 4 5 6 6 6 6 6 6 7 7 6 6 6 6 6 6 6 5 4 4 3 3 3 3 3 2 3 3 4 4 5 6 6 7 6
7 6 6 6 5 5 5 4 3 2 2 1 2 3 3 3 5 5 5 4 5 5 6 6 6 5 5 5 5 5 5 5 5 5 4 4 3 3 2 2 3 4 5 6 6 7 8 8 9
9 8 8 8 8 8 7 5 4 4 3 2 1 1 1 3 3 4 4 4 4 4 5 5 5 5 5 5 5 5 5 5 5 4 4 4 4 3 3 3 4 4 5 6 7 8 9 9 10
10 10 11 11 10 9 9 8 5 5 5 5 3 2 1 1 3 2 2 2 2 2 3 4 5 5 5 5 4 5 5 5 5 5 5 5 4 3 4 5 5 5 5 6 8 9 9 10 10
11 13 13 12 12 11 10 9 7 7 7 7 6 4 2 2 2 3 2 1 0 1 1 3 4 4 5 5 4 5 5 5 5 5 5 5 5 4 5 6 6 6 6 7 9 10 10 10 10
13 14 14 14 14 13 11 11 9 8 8 8 8 6 4 3 3 4 3 2 1 2 2 2 3 3 4 5 5 5 5 6 6 6 6 6 6 6 6 6 7 7 8 9 10 10 11 11 12
16 16 16 16 16 14 13 13 11 10 10 9 9 8 6 6 5 5 5 4 3 3 3 3 3 4 5 5 5 6 7 7 7 7 7 7 7 7 7 7 8 8 9 10 10 11 11 12 13
17 18 19 19 18 16 15 14 13 12 12 10 10 9 8 7 7 6 6 5 5 5 5 5 5 5 5 6 6 7 7 8 8 8 9 9 8 9 9 9 9 10 11 11 11 11 12 12 12
19 19 20 21 20 19 17 15 14 14 13 12 11 11 10 9 9 8 7 7 6 6 6 7 7 7 7 8 8 9 8 9 9 9 10 10 10 10 10 11 11 11 12 12 12 12 12 13 13
21 21 21 21 21 20 18 16 15 14 14 13 12 12 11 9 9 9 8 8 8 8 8 9 8 8 9 10 10 10 11 11 10 10 10 11 11 11 12 12 13 13 13 13 13 12 13 13 12
23 22 22 22 22 21 21 18 16 14 14 14 12 12 11 10 9 9 10 10 10 10 10 10 10 10 10 11 11 11 11 12 12 12 12 12 12 12 13 14 14 14 14 14 13 12 13 13 13
24 24 23 23 23 23 22 19 17 16 15 15 14 13 13 12 11 12 12 12 12 12 11 11 11 11 12 12 12 12 12 13 14 14 13 13 14 14 14 15 15 15 15 14 14 14 14 14 14

GEFSSGP_500_meanwind_330.txt.gz
Wind_Speed
14 14 14 14 14 14 13 12 11 10 10 11 10 9 8 8 7 7 7 6 6 6 6 6 6 6 6 7 8 9 10 10 10 11 11 11 11 11 10 9 9 9 8 7 7 7 7 7 6
14 14 14 14 15 14 13 12 11 11 10 11 11 10 9 8 7 7 7 7 7 7 7 6 6 7 6 7 8 9 10 10 10 10 12 12 11 10 10 9 9 9 8 8 7 7 7 6 6
14 14 14 14 14 13 13 12 12 11 11 11 11 10 9 8 7 7 7 8 8 7 7 6 6 7 8 8 8 8 9 9 9 10 11 12 12 11 10 9 9 9 8 8 8 7 7 7 6
14 14 14 13 13 12 12 12 12 11 11 11 11 10 9 8 8 8 8 8 7 8 7 8 7 8 8 8 8 9 9 9 10 10 11 12 12 11 10 10 10 9 8 8 8 8 8 8 7
14 15 14 13 12 12 12 12 12 12 11 11 11 10 10 9 9 8 8 8 8 8 8 8 8 8 7 8 8 9 9 8 9 10 10 10 11 10 9 10 10 9 8 7 7 6 6 6 6
15 15 14 13 12 12 12 12 12 12 12 11 11 10 10 10 9 9 9 9 8 7 8 8 7 7 8 8 8 8 8 8 9 9 9 9 9 9 9 9 9 8 7 7 7 6 5 5 5
13 13 13 13 12 12 12 12 12 12 11 11 11 10 10 10 9 9 8 9 8 8 7 7 7 8 7 7 8 8 8 8 9 9 9 9 10 10 9 8 8 7 7 6 6 5 4 4 4
12 12 11 11 11 11 11 11 11 11 11 11 11 10 10 10 9 9 8 8 8 7 7 7 8 8 8 8 8 8 9 9 8 8 8 9 9 9 8 8 8 7 7 6 5 4 4 4 4
11 11 10 10 10 10 11 11 11 11 11 11 10 10 10 10 9 8 8 8 7 7 7 7 7 7 8 8 7 8 9 8 7 7 7 8 7 8 7 7 7 7 7 6 6 4 4 4 4
10 9 9 10 10 10 10 11 11 11 10 11 11 10 10 9 9 8 8 8 7 7 7 7 7 7 7 7 7 6 7 7 6 6 5 5 6 6 6 6 6 6 6 6 5 5 4 4 3
8 8 9 9 9 9 10 10 10 10 10 10 10 10 9 9 9 8 8 8 8 8 8 7 7 7 6 6 6 6 6 5 5 5 5 4 5 5 5 5 6 6 5 5 5 4 4 4 4
7 7 7 7 9 9 10 10 9 9 9 9 9 9 9 9 9 8 8 8 8 8 7 7 7 7 6 6 5 5 5 5 4 4 4 4 3 4 4 4 5 6 6 5 4 4 5 5 5
5 6 6 6 7 8 9 9 9 8 8 8 8 8 9 9 9 8 8 8 8 7 7 7 7 7 6 6 5 5 5 4 3 3 3 3 2 2 2 3 4 4 5 5 5 5 6 6 6
3 4 4 5 6 6 7 8 8 7 7 7 7 7 7 8 8 7 7 7 7 7 7 7 7 7 6 6 5 5 4 4 4 3 3 3 2 2 2 2 3 5 5 5 5 6 6 7 7
2 2 2 3 4 4 5 5 5 6 6 6 6 6 6 6 6 6 6 6 6 6 6 6 6 6 6 6 5 5 4 4 3 3 3 3 2 2 2 2 4 5 5 5 6 6 7 7 8
1 1 2 2 2 3 4 4 4 5 5 5 4 4 4 5 5 5 5 5 5 5 5 5 5 5 5 5 4 4 3 3 2 2 2 2 2 2 2 2 3 4 5 6 6 7 7 8 8
1 1 1 1 2 2 2 2 3 3 3 4 4 3 3 4 4 4 4 4 5 5 5 5 5 4 4 4 4 4 3 3 2 2 2 1 0 1 1 2 2 3 5 6 7 7 8 9 9
3 3 2 3 3 2 1 0 1 1 1 2 2 2 2 2 2 3 3 3 4 4 4 4 3 3 3 4 4 4 3 2 2 2 2 1 2 2 2 2 3 3 4 5 6 7 8 8 7
5 4 4 4 4 3 2 1 1 1 0 0 1 1 2 1 1 1 1 2 3 3 3 3 3 3 3 3 3 3 3 2 2 2 1 2 2 2 2 2 2 3 4 5 6 6 6 7 7
7 7 7 6 5 4 3 3 3 3 3 3 3 2 2 2 2 1 1 1 1 2 2 2 2 2 2 2 2 3 2 2 2 2 3 3 3 3 3 4 3 3 4 4 5 5 6 7 8
8 8 8 7 6 6 5 4 4 4 4 4 4 4 4 3 3 2 2 1 1 1 1 1 1 1 1 1 2 2 2 2 2 2 3 4 3 4 4 4 5 5 5 5 6 6 7 7 8
9 9 9 8 7 6 6 5 6 5 5 6 6 5 5 4 4 4 4 3 2 2 1 1 1 1 2 2 2 2 3 2 3 3 4 5 5 5 5 5 5 5 5 6 6 7 8 8 8
11 11 10 9 8 8 7 6 7 7 6 7 7 7 7 7 6 6 6 5 4 3 3 2 2 2 3 3 3 4 4 3 4 4 4 5 6 6 6 6 6 6 6 7 7 8 8 9 10
12 12 11 10 9 10 9 8 9 8 8 8 8 8 8 8 7 7 7 7 6 5 5 5 4 4 4 4 5 5 5 5 5 5 6 6 6 6 6 7 7 8 8 8 9 9 10 10 10
14 13 12 11 12 12 11 11 10 10 9 9 8 8 8 9 9 8 8 8 8 7 7 7 6 6 6 6 6 7 7 7 7 7 7 7 7 7 7 8 8 9 9 10 10 10 10 10 11
16 15 14 13 13 13 13 12 12 11 10 9 9 9 9 9 9 9 9 9 10 9 9 9 8 8 8 7 8 8 8 8 8 8 8 8 8 9 8 9 10 10 10 10 11 10 10 11 11
17 17 16 16 16 14 14 14 13 12 11 11 11 10 10 9 10 10 10 10 11 11 10 10 10 10 9 9 9 10 10 10 10 10 10 10 10 10 9 10 11 11 11 11 12 11 12 12 12
19 18 18 17 16 16 15 14 13 13 12 12 12 12 12 11 11 11 11 12 12 12 12 12 12 12 12 12 11 11 12 12 12 12 11 11 11 11 11 11 11 11 12 12 13 12 13 13 13
20 20 20 19 18 17 16 15 15 14 14 13 13 13 13 12 12 12 12 13 13 13 13 13 13 14 13 13 13 13 14 14 13 13 13 13 12 12 12 13 13 13 13 14 14 14 14 14 15
22 22 21 21 21 19 17 17 17 15 15 15 15 15 15 15 14 14 14 15 15 15 15 15 14 15 15 15 15 15 15 14 14 14 14 14 14 14 14 14 14 14 15 15 15 15 16 16 16

GEFSSGP_500_meanwind_336.txt.gz
Wind_Speed
14 14 13 12 12 12 9 7 6 6 6 5 5 5 5 5 5 5 4 4 4 4 4 3 3 3 3 4 4 5 6 6 7 7 7 7 5 5 6 6 6 5 5 4 4 4 4 4 4
14 14 14 14 14 11 9 7 8 7 6 6 6 6 5 5 6 5 5 4 5 4 4 4 4 4 4 5 5 5 6 6 6 7 7 6 5 5 6 6 6 5 5 5 5 4 3 3 4
14 14 16 15 12 10 10 9 8 7 7 6 6 6 6 6 6 6 6 5 5 5 4 4 4 5 5 5 5 6 6 6 6 6 6 6 6 5 6 6 5 5 4 4 5 4 4 3 3
13 15 17 15 10 10 10 9 8 8 7 7 7 6 6 6 6 6 6 6 5 6 5 5 4 5 6 6 5 6 5 6 6 6 6 6 6 6 6 5 5 4 4 4 4 3 3 3 2
15 16 16 13 10 9 9 9 8 8 8 7 7 7 7 7 7 7 7 7 7 7 6 6 6 5 5 4 3 4 5 6 6 6 5 5 5 6 6 5 4 4 3 2 2 2 2 1 2
14 14 13 11 10 9 8 9 9 9 8 8 8 8 7 7 7 7 7 7 7 6 6 6 6 6 5 5 4 5 5 6 6 6 5 4 6 6 5 5 3 3 3 1 1 1 2 2 2
12 14 11 9 8 9 8 9 9 9 9 9 9 8 8 7 7 7 7 7 7 6 6 6 6 6 6 5 5 5 5 5 6 5 5 4 5 4 4 3 3 1 1 1 1 2 2 2 3
12 12 9 8 8 8 8 8 9 9 9 9 8 8 8 8 7 7 7 7 7 6 6 6 6 5 6 5 4 4 5 5 5 5 5 4 3 3 2 2 2 1 1 1 1 1 1 1 3
10 10 8 7 6 7 8 8 8 8 9 9 9 8 8 8 8 7 7 7 6 6 6 6 6 5 5 5 4 4 4 4 5 4 4 3 3 2 1 1 1 1 1 1 1 1 1 1 1
10 7 6 5 6 7 9 8 8 8 8 8 8 8 8 8 8 8 8 7 7 6 6 6 6 6 5 5 4 4 4 4 4 3 3 2 2 1 0 1 2 1 1 0 0 1 1 2 1
7 5 5 6 6 7 8 8 8 8 8 9 8 8 8 8 7 8 8 8 7 7 7 7 6 6 6 5 5 4 4 4 3 2 2 1 1 1 0 0 1 1 1 1 1 2 2 2 3
5 5 5 6 7 7 6 7 7 8 8 8 8 8 8 8 7 8 8 7 7 7 7 7 6 6 5 5 5 4 4 4 3 2 2 1 0 1 1 0 1 1 1 2 3 3 3 3 4
4 5 6 5 7 7 7 7 7 7 7 7 8 8 7 7 7 7 7 7 7 8 7 7 7 6 6 5 5 4 3 3 2 2 2 1 0 0 1 1 1 2 2 3 4 4 5 5 5
4 5 6 6 6 7 8 8 8 8 8 7 7 7 7 7 7 7 7 7 7 7 7 7 6 6 6 6 5 5 4 3 3 2 1 1 1 1 2 2 2 3 3 4 5 6 6 6 6
4 5 6 6 7 7 8 8 7 7 8 8 7 7 7 7 6 6 6 6 7 7 7 7 6 6 6 6 6 5 5 4 3 3 2 1 1 2 2 2 3 3 4 4 5 5 6 7 7
4 4 6 6 7 7 7 7 7 7 7 8 7 7 7 7 6 6 5 5 6 6 6 6 6 6 6 6 6 5 5 5 4 4 3 3 3 3 2 3 3 3 4 5 5 5 6 7 8
1 3 5 5 6 6 7 7 7 7 8 8 7 7 7 7 6 5 5 5 5 6 6 6 6 6 6 6 5 5 5 5 4 4 4 3 3 3 3 3 3 4 5 6 6 6 7 8 8
2 3 4 5 5 5 6 8 7 7 8 8 8 7 7 6 5 5 5 5 5 6 6 6 6 6 7 7 6 6 5 5 5 5 5 4 4 4 4 4 4 5 6 6 7 7 8 8 9
3 4 5 5 6 6 6 8 8 8 7 8 8 8 7 7 6 5 5 5 5 5 5 6 7 6 7 7 7 6 6 5 5 6 6 6 5 5 4 4 5 6 6 6 6 7 7 8 9
7 6 6 6 7 8 8 8 9 8 8 8 8 8 7 7 6 5 5 5 5 5 6 6 6 7 7 7 7 6 6 6 6 6 6 6 6 5 6 6 5 6 6 7 7 7 8 8 8
9 8 7 7 7 8 10 9 9 10 9 8 9 9 8 8 6 6 6 6 6 6 5 5 6 7 7 7 7 7 7 6 6 6 7 7 7 6 6 7 7 7 7 7 7 8 9 9 9
9 9 7 7 8 9 9 10 10 10 10 10 9 9 9 9 8 7 7 7 7 6 5 5 5 6 7 7 7 7 7 7 7 7 7 7 7 7 7 7 8 8 8 8 8 9 9 10 9
11 9 8 9 11 10 10 11 10 11 11 10 10 10 10 8 8 8 7 7 7 7 6 5 6 6 7 7 8 8 8 8 9 8 7 8 8 7 7 8 8 8 9 9 10 10 10 10 10
11 9 9 9 11 11 10 11 12 12 11 11 11 11 10 9 9 8 8 8 8 7 6 7 7 7 8 9 9 9 9 9 10 9 9 9 9 8 8 9 9 9 9 10 10 10 10 11 11
11 10 10 10 11 12 11 11 13 13 13 12 13 13 12 11 10 9 9 9 8 8 8 8 8 9 9 9 10 10 11 11 11 10 11 11 11 10 10 10 10 10 11 11 11 11 11 11 12
13 12 12 12 13 13 12 13 13 14 16 16 14 14 13 12 11 10 9 9 9 9 9 9 10 11 11 11 11 12 13 13 12 12 12 12 12 12 12 12 12 12 12 11 12 12 12 12 13
15 15 14 14 14 14 15 14 15 16 17 17 15 14 14 14 12 11 11 11 11 11 11 11 12 12 13 13 13 14 15 15 14 14 14 14 14 14 14 14 14 14 14 14 13 14 13 14 14
17 16 15 16 16 17 16 17 17 16 16 17 17 17 16 14 14 13 13 13 12 12 12 13 14 14 14 15 15 15 15 16 17 17 17 15 15 15 15 16 15 15 15 16 15 15 15 15 15
19 19 18 18 19 19 18 18 17 16 16 16 18 18 17 15 15 15 14 14 13 14 14 15 15 15 16 16 16 16 17 18 18 18 17 17 17 17 17 17 17 16 17 17 17 17 17 17 18
21 22 21 21 22 22 21 20 18 17 17 17 18 18 18 17 17 16 16 16 15 15 15 15 16 16 16 17 17 17 18 18 19 19 18 18 17 17 18 18 17 17 18 18 19 19 19 19 19

GEFSSGP_500_meanwind_342.txt.gz
Wind_Speed
14 14 13 13 13 13 13 13 13 13 12 10 10 9 9 9 9 9 8 8 7 6 5 5 3 3 3 3 3 4 4 5 6 7 7 5 5 5 4 4 4 3 3 2 2 3 2 2 2
15 14 13 13 14 15 14 13 13 13 13 12 11 10 9 10 10 9 9 8 8 7 7 6 5 4 4 4 3 4 4 5 6 7 6 5 4 4 4 3 3 3 3 3 3 2 2 2 2
14 14 13 14 16 16 15 15 14 13 13 12 11 11 10 10 11 10 9 9 9 7 7 6 5 5 5 4 4 4 5 5 6 6 5 4 3 3 3 4 3 4 4 3 2 3 3 2 2
14 14 15 16 17 17 16 15 15 13 13 12 12 12 11 11 11 11 10 10 10 9 8 6 6 6 5 5 4 3 5 5 6 6 5 4 4 4 4 4 4 4 4 3 2 3 4 3 3
13 14 16 16 16 16 16 15 15 13 13 13 13 12 12 11 11 11 11 11 10 9 9 8 6 6 6 5 4 4 5 5 6 6 5 5 4 4 4 3 3 4 3 2 2 3 4 4 3
12 13 15 16 16 16 15 15 15 14 13 13 13 12 12 12 12 12 12 11 10 10 9 9 8 7 6 6 6 5 4 4 5 5 5 5 4 4 4 3 3 3 2 2 2 3 4 4 3
11 12 14 15 15 15 15 14 14 14 13 13 13 12 12 12 12 12 12 11 10 10 9 9 9 9 8 6 6 5 5 5 5 5 5 5 5 4 4 3 2 2 3 3 2 3 3 4 3
10 13 14 14 14 14 14 14 14 14 14 13 12 12 13 13 12 12 12 11 10 10 9 9 9 9 8 7 6 6 6 6 6 5 5 5 4 4 4 3 3 3 3 3 3 3 3 3 3
11 12 12 13 12 13 13 13 13 14 14 13 12 12 13 12 12 12 11 11 10 9 9 8 9 8 8 8 7 7 6 7 6 5 5 4 3 4 3 2 2 2 2 2 2 3 2 2 2
11 12 12 12 11 12 12 12 12 13 13 13 13 13 12 12 12 12 12 11 10 10 9 8 8 8 8 7 7 7 7 7 6 5 4 3 4 4 2 1 2 2 2 1 2 1 1 1 0
10 11 10 11 11 11 12 12 12 12 13 13 13 13 13 12 12 12 12 11 11 11 11 10 8 8 8 7 7 8 7 6 5 5 4 4 3 3 2 2 2 1 1 1 1 0 1 2 1
8 9 9 10 10 10 10 11 11 12 12 13 13 12 12 11 11 11 11 11 11 11 11 10 9 8 7 7 7 7 7 6 6 4 3 3 3 3 2 2 1 1 1 0 0 0 1 2 2
8 9 9 9 11 11 10 10 11 11 11 12 12 12 11 11 10 11 11 11 11 11 11 10 9 8 7 7 7 6 6 6 6 5 3 3 2 2 1 1 1 1 1 0 1 1 2 2 2
6 7 8 8 9 10 11 11 10 11 11 12 12 12 11 10 10 10 10 11 11 11 10 10 9 9 8 7 6 6 5 5 4 4 3 3 2 1 1 1 0 0 0 1 2 2 3 3 3
5 5 6 7 8 9 9 10 11 11 10 10 11 11 11 10 10 10 10 10 10 10 10 10 10 9 8 7 6 6 6 5 4 4 4 3 2 2 1 1 1 1 1 2 3 3 4 4 4
2 4 4 6 8 9 9 9 10 11 10 9 9 10 10 10 10 9 9 9 9 10 10 9 9 9 8 8 6 6 6 5 5 5 4 3 2 2 1 1 1 2 3 3 4 4 4 4 4
1 2 3 5 7 8 8 8 9 10 10 9 9 9 9 9 9 9 9 8 8 8 9 9 9 9 8 8 7 6 6 5 5 5 4 3 2 2 2 2 3 3 3 3 3 4 4 4 5
1 1 3 4 6 6 7 7 8 9 8 8 9 9 9 8 8 8 8 8 7 7 7 7 8 8 8 7 7 7 6 5 5 5 4 3 3 2 2 2 3 4 3 4 4 4 5 5 5
1 2 2 3 4 6 7 7 7 7 7 7 8 8 8 7 8 7 8 7 7 6 6 6 7 7 6 6 6 6 6 6 5 5 5 4 4 3 3 3 3 3 3 4 4 4 5 5 6
3 3 1 3 4 6 8 7 6 6 6 7 7 7 7 7 7 7 7 7 6 6 6 5 6 5 5 5 5 5 6 6 6 5 5 5 5 5 4 4 3 4 4 4 4 4 5 6 7
5 5 3 3 5 7 8 7 7 6 7 7 6 7 7 6 6 7 7 6 6 6 5 5 4 4 4 5 5 5 6 6 6 5 6 5 6 6 5 4 4 5 4 5 5 5 6 6 7
7 6 7 7 8 9 9 9 6 7 8 8 7 6 6 6 6 6 6 5 6 6 5 5 4 4 4 5 5 5 5 6 6 5 6 6 6 6 6 6 6 6 6 6 6 6 6 6 6
8 8 10 10 10 11 11 10 7 7 8 8 7 6 6 6 6 6 6 5 5 5 5 5 5 4 4 5 6 5 5 6 6 6 7 7 7 7 7 7 7 7 7 7 7 7 7 7 7
10 11 12 11 12 13 11 11 9 8 8 8 8 7 6 5 6 6 5 5 5 5 5 5 5 5 5 6 6 6 6 7 7 7 7 7 8 8 8 8 7 8 8 8 8 8 8 8 8
13 13 13 13 13 13 12 13 10 8 8 9 8 8 7 6 6 6 6 5 5 5 5 6 6 6 6 6 7 7 8 8 8 8 9 9 9 9 9 9 8 9 9 9 9 9 10 9 8
15 16 16 15 15 14 13 13 11 9 9 10 10 10 9 7 6 7 8 7 7 6 6 7 8 8 8 8 8 8 9 9 9 10 10 11 10 11 10 10 10 10 10 10 10 10 10 10 10
16 17 17 17 17 17 15 13 12 11 11 12 12 11 9 9 9 9 9 9 9 8 8 8 9 9 9 10 10 10 11 11 11 12 12 11 12 12 12 12 12 12 13 12 12 11 11 11 11
16 17 19 20 19 19 17 15 14 14 14 13 13 11 10 10 10 10 11 10 10 10 10 10 10 11 12 12 12 12 12 13 13 13 14 14 14 14 14 14 15 14 13 13 13 13 13 13 13
18 18 19 21 21 20 19 18 15 15 17 16 15 13 12 12 12 12 11 12 12 12 11 11 11 12 13 13 14 14 14 15 15 16 16 15 14 14 14 14 14 15 15 15 14 14 14 14 14
20 20 21 22 21 22 22 20 17 17 17 18 17 16 15 14 14 14 12 13 14 14 14 13 14 14 15 15 15 16 16 16 16 16 16 15 15 15 14 14 15 16 16 16 15 15 15 15 16

GEFSSGP_500_meanwind_348.txt.gz
Wind_Speed
13 12 11 11 11 11 12 12 12 12 11 9 8 8 9 8 8 7 6 6 5 5 5 5 5 5 5 6 6 5 5 6 6 6 6 5 5 5 4 4 3 3 3 3 3 3 3 2 3
13 12 12 11 12 12 13 13 13 13 12 10 9 9 9 9 8 8 6 5 5 5 5 5 4 4 5 5 5 5 5 6 6 6 5 5 5 5 5 4 3 2 3 3 3 3 3 3 3
13 12 12 12 13 13 14 14 14 14 13 12 12 11 11 10 9 8 7 6 6 5 5 4 4 4 5 5 5 5 5 5 7 6 6 6 5 5 5 4 3 3 2 2 3 3 3 3 3
12 11 11 12 14 14 14 14 15 14 13 13 13 12 13 12 10 8 8 7 6 6 6 5 5 5 5 5 5 5 5 6 7 7 6 5 5 5 5 4 3 3 3 2 2 2 2 2 3
11 11 12 13 14 14 15 15 15 14 13 13 13 13 13 12 10 9 8 8 7 7 6 6 6 6 6 5 5 5 6 6 6 6 6 6 6 5 5 4 3 3 3 3 3 3 2 2 2
9 10 11 13 14 15 15 15 15 14 13 13 13 12 12 12 11 9 9 9 8 7 7 7 6 6 6 5 5 5 5 6 5 5 5 5 5 5 4 4 3 2 2 3 3 3 3 2 2
10 10 11 12 13 14 14 14 15 14 13 13 13 13 13 13 12 10 10 9 8 8 8 8 8 6 5 5 4 4 5 5 5 6 6 5 5 4 4 3 3 2 2 2 2 2 2 2 2
10 10 10 10 11 13 13 14 14 13 13 12 13 13 13 13 12 11 10 9 8 8 8 8 7 7 6 5 5 5 5 6 6 6 6 5 5 5 4 3 3 2 1 1 1 1 2 2 2
9 9 10 10 11 12 13 13 13 13 12 12 12 12 13 12 11 11 10 9 8 8 7 7 7 7 6 6 6 6 6 6 7 6 6 5 5 4 3 2 2 2 1 1 0 1 1 2 2
8 9 10 10 11 12 13 13 12 12 12 12 12 12 12 11 11 11 10 9 8 7 7 7 6 6 6 6 6 7 6 7 7 6 5 5 5 4 3 2 2 1 2 1 0 1 1 1 2
6 8 9 10 11 11 12 12 12 12 12 12 12 12 11 11 11 11 10 9 8 8 7 7 7 7 7 7 7 7 8 8 7 6 5 4 4 3 3 2 1 1 2 1 0 1 1 1 2
6 6 7 9 10 10 11 11 11 12 12 11 11 11 11 10 10 10 10 9 9 9 9 8 7 8 7 8 8 8 8 7 6 5 4 4 3 2 2 2 1 2 1 1 0 1 1 1 2
5 6 7 8 9 9 10 10 10 11 12 11 10 10 10 10 10 10 10 9 9 9 8 8 8 8 7 7 7 7 7 6 5 4 3 2 2 2 2 2 2 2 2 1 1 2 2 1 1
5 5 6 7 8 9 10 9 8 9 11 10 9 10 10 9 9 9 9 9 9 9 8 8 8 8 7 7 6 6 5 5 4 4 3 3 2 2 2 2 2 2 2 2 2 3 3 3 3
4 5 5 6 6 7 8 8 8 7 9 9 9 9 9 9 8 8 8 8 8 8 8 8 8 7 6 6 6 5 5 4 3 3 3 3 2 1 1 2 2 2 2 2 3 3 4 4 4
2 3 4 4 5 5 6 8 7 7 7 8 8 8 8 8 8 8 8 8 7 7 7 7 7 7 5 5 4 4 4 4 3 2 2 2 1 1 1 1 2 3 3 3 3 4 5 5 6
0 1 3 3 3 3 4 6 5 5 5 6 6 7 7 7 7 7 7 7 7 7 7 6 6 6 5 4 4 4 4 4 4 3 2 1 1 1 2 2 3 4 4 4 4 5 5 6 7
2 1 0 2 2 3 4 4 3 3 3 4 4 5 5 6 6 6 6 6 6 6 6 5 5 5 5 4 4 4 4 3 3 2 2 2 2 2 2 2 3 4 5 5 5 5 5 6 7
4 3 1 1 2 3 3 4 3 2 2 3 3 4 4 4 5 5 5 5 5 5 5 5 3 4 4 3 3 3 3 2 2 2 2 3 3 3 3 4 3 4 5 6 6 6 6 7 8
5 4 3 3 3 4 4 4 4 4 3 3 3 4 3 3 3 4 4 4 5 5 4 4 3 3 3 3 3 3 3 2 2 2 2 3 3 3 4 4 4 5 5 6 7 7 7 8 9
7 5 5 5 5 5 5 5 5 6 5 4 4 4 3 3 3 3 3 4 4 4 4 4 3 4 3 3 3 4 4 3 3 3 3 4 4 4 4 5 5 6 6 7 7 7 8 8 9
9 8 7 7 7 6 7 7 6 7 6 6 5 5 4 5 4 4 4 4 4 4 4 4 4 4 4 4 4 4 5 5 5 5 5 4 5 5 5 5 5 6 7 7 8 9 9 9 9
10 10 10 10 9 8 8 8 6 7 8 7 6 5 5 5 5 5 5 5 4 4 4 4 4 5 5 5 5 6 6 6 6 6 6 6 6 6 7 7 7 7 8 8 9 10 10 10 10
13 13 12 11 11 10 9 10 8 8 9 9 8 8 7 7 6 6 6 5 5 5 5 5 5 5 6 6 7 7 8 8 8 7 8 8 8 8 8 9 9 9 9 9 10 10 11 10 10
15 14 14 13 12 11 11 11 9 8 10 11 10 9 8 8 7 7 7 7 7 7 7 7 7 7 7 8 9 9 10 10 10 10 10 10 9 10 10 10 10 9 10 10 10 11 11 11 11
16 16 16 16 15 13 13 12 10 10 11 12 12 11 9 8 8 8 8 8 7 7 8 8 8 8 8 9 10 11 12 12 12 11 11 11 11 11 12 12 11 11 12 12 11 11 11 12 12
18 18 17 17 17 16 15 13 12 12 13 14 13 12 11 10 10 10 10 10 9 9 9 9 10 10 10 11 12 13 13 13 13 12 12 12 12 13 13 14 13 13 13 13 13 13 12 12 13
19 19 19 19 19 18 17 15 14 14 15 15 14 14 13 13 13 12 12 12 11 11 10 11 12 12 13 13 14 14 15 15 14 14 14 14 14 14 15 15 15 15 15 14 14 14 14 14 13
20 21 20 20 20 20 19 18 16 16 16 16 16 15 15 14 13 12 12 13 13 13 13 14 14 14 15 16 16 17 17 16 16 16 16 16 16 16 16 16 16 17 16 16 15 15 15 15 15
21 21 22 22 22 22 21 20 18 17 16 17 17 17 16 15 14 14 14 15 15 16 16 16 17 17 18 19 19 19 18 17 17 18 18 18 18 18 18 17 18 17 17 16 16 16 16 17 16

GEFSSGP_500_meanwind_354.txt.gz
Wind_Speed
11 10 11 11 12 11 9 8 8 8 8 8 8 7 7 7 7 7 7 6 6 6 5 5 6 6 6 7 7 7 7 7 7 8 8 8 8 7 6 6 6 6 5 4 4 4 4 5 4
11 11 11 11 12 10 9 9 8 8 8 8 8 8 7 7 7 6 6 6 6 5 5 5 5 6 6 6 6 7 7 7 7 7 7 7 7 7 7 6 6 5 5 4 4 4 4 4 4
12 11 11 11 11 11 10 10 10 10 9 9 9 9 8 7 6 6 6 6 6 6 5 5 5 5 6 6 7 7 7 7 7 7 7 7 7 6 5 5 5 5 5 5 5 4 4 4 5
12 12 11 12 11 11 11 11 11 10 10 10 9 9 9 8 7 6 7 7 6 5 5 5 5 5 5 6 6 6 6 6 7 7 7 7 6 5 5 4 4 5 5 5 5 5 5 5 5
12 11 12 11 11 11 11 11 11 11 10 10 10 10 9 8 8 7 6 6 5 4 3 3 3 5 5 5 5 5 6 6 7 7 6 6 6 5 5 4 4 5 5 4 5 5 5 5 5
10 10 11 10 9 10 11 11 10 11 10 10 10 10 9 9 8 7 6 6 5 4 3 2 3 5 5 4 4 4 5 6 7 7 6 6 5 5 5 4 3 4 5 4 5 4 5 5 5
10 10 10 9 10 10 10 10 10 10 10 10 10 9 9 9 9 8 7 7 6 5 4 4 4 4 4 4 4 5 5 6 7 6 6 6 5 5 5 4 3 3 3 3 4 4 5 6 5
9 9 10 9 9 9 9 9 9 9 9 9 10 9 9 9 9 9 8 8 7 7 6 5 4 4 4 4 4 5 6 6 6 6 6 6 5 5 5 4 3 2 2 2 3 4 5 5 5
8 9 9 8 8 8 8 8 9 8 9 9 9 9 9 8 9 9 8 8 7 7 6 5 4 4 4 4 5 6 6 6 6 5 5 5 5 5 5 4 3 3 2 2 2 2 4 5 5
7 7 7 7 7 7 7 8 8 8 8 9 9 9 9 8 7 7 7 7 6 5 5 4 3 3 4 4 5 5 5 6 5 5 5 5 4 5 4 4 4 3 3 3 3 2 3 4 4
6 6 6 6 6 6 7 7 7 7 7 8 8 8 8 8 7 6 6 5 5 5 5 4 4 4 4 4 5 5 5 5 5 5 5 4 4 4 4 4 4 4 3 3 3 2 3 3 4
6 5 5 5 5 6 6 6 7 7 7 7 7 7 7 7 6 6 6 6 5 4 5 5 4 4 4 4 4 4 4 5 5 5 5 5 4 4 4 4 4 4 4 3 3 3 4 3 4
5 5 5 5 5 5 5 5 6 6 6 5 6 6 6 6 5 5 5 5 5 4 4 4 4 3 3 3 4 4 5 5 5 5 4 4 4 4 4 4 4 4 4 3 4 5 5 4 4
5 5 5 6 5 5 5 5 5 5 4 4 5 5 5 5 5 5 5 5 5 5 4 4 3 3 3 4 4 4 4 5 5 4 4 4 4 4 4 4 5 4 4 4 4 5 5 4 5
3 4 4 4 4 4 5 5 4 4 4 4 4 4 4 4 4 4 4 5 4 5 4 4 2 2 2 2 2 4 5 4 4 3 3 3 4 5 4 5 5 5 5 5 5 6 7 6 5
2 3 3 2 2 3 4 4 3 3 3 3 4 4 4 4 3 4 4 4 4 4 3 3 2 2 1 1 1 2 3 2 2 2 2 3 3 4 4 4 4 4 5 5 6 7 7 7 6
1 1 1 1 1 1 2 2 2 2 3 3 4 4 3 3 3 3 4 4 4 4 3 3 2 2 2 1 1 1 2 2 2 1 2 2 3 3 4 3 4 4 5 5 6 7 7 7 7
3 3 2 1 2 1 1 1 2 2 3 3 3 4 3 3 3 3 3 3 3 3 3 3 3 2 1 1 1 1 1 2 1 1 2 3 3 3 4 3 4 5 5 6 7 7 7 7 8
5 5 4 3 3 3 2 2 2 2 3 3 4 4 4 4 4 4 3 3 3 3 3 3 3 2 2 1 1 1 1 1 2 2 2 3 3 3 3 4 5 6 6 6 7 7 8 8 8
6 6 5 5 5 4 4 3 4 4 4 4 5 5 5 5 5 5 4 3 3 3 3 3 3 3 2 3 3 3 3 2 2 3 2 2 2 3 3 4 5 6 7 7 7 8 7 8 8
8 7 6 6 5 5 5 6 6 5 5 5 5 5 6 6 7 7 6 5 5 4 4 4 4 4 4 3 4 5 4 4 4 4 4 4 5 5 5 5 6 7 7 7 8 9 9 10 10
10 9 8 8 6 6 6 6 7 7 7 7 6 7 7 6 7 7 8 7 6 5 6 6 6 6 6 5 5 6 6 6 6 5 5 6 7 7 7 8 7 7 8 8 9 10 10 11 11
11 11 10 9 8 8 7 7 8 8 8 8 8 7 8 7 8 8 8 9 8 8 8 8 8 8 8 7 7 7 7 8 8 8 8 8 9 10 10 10 10 9 9 10 10 10 11 11 12
12 12 11 11 10 10 9 8 9 9 8 9 9 9 9 8 8 8 9 9 9 10 10 10 10 10 10 9 9 9 10 9 10 10 11 11 11 11 11 11 12 12 11 12 12 12 12 12 12
13 11 10 10 11 11 11 9 10 10 10 10 10 11 10 9 8 8 8 9 9 10 10 11 11 11 11 11 11 11 11 11 11 12 13 12 12 12 12 12 13 13 13 13 13 13 13 13 13
14 13 12 12 12 12 12 11 11 11 11 11 12 11 10 10 10 10 10 10 10 10 10 11 11 11 12 12 12 12 12 13 13 13 13 13 13 14 14 14 14 14 14 14 15 15 14 14 14
16 15 14 14 13 12 13 13 13 12 12 12 12 11 10 11 12 12 12 11 11 11 11 12 12 12 13 13 13 14 14 14 14 14 13 14 14 15 16 16 16 16 16 16 16 16 16 16 15
18 17 15 15 15 15 14 14 14 13 13 13 13 13 13 12 13 13 13 13 13 13 13 13 13 14 14 15 15 15 16 16 15 15 15 16 16 17 17 17 17 17 17 17 17 17 16 16 16
18 18 17 17 17 16 15 15 16 15 14 14 14 15 15 14 14 15 16 15 15 15 15 15 15 15 16 17 17 17 17 16 16 17 18 18 19 18 18 18 18 18 19 19 18 18 17 17 17
18 18 17 18 19 18 17 17 18 17 16 15 15 15 16 15 15 17 17 17 17 17 17 17 18 18 18 18 18 18 18 18 18 19 19 20 20 20 20 19 19 19 20 19 19 19 19 18 18

GEFSSGP_500_meanwind_360.txt.gz
Wind_Speed
12 11 10 10 12 11 8 6 6 6 5 4 3 2 2 3 4 4 4 3 3 2 3 3 3 3 3 3 3 3 4 5 4 6 6 6 5 5 5 5 5 3 3 3 3 4 4 3 3
13 12 11 12 14 10 7 7 7 7 6 4 4 3 3 3 3 4 4 4 3 3 2 2 2 3 3 2 3 3 4 5 4 5 5 5 5 4 4 4 4 3 3 3 3 4 3 4 4
12 13 13 12 12 9 8 7 7 7 6 5 4 3 3 4 4 4 4 4 3 2 2 2 2 2 2 2 2 3 4 4 5 5 4 4 4 4 4 4 4 3 3 3 3 4 4 4 4
13 13 13 13 11 9 8 8 7 6 7 6 5 4 4 4 4 4 4 4 3 3 2 1 1 1 1 2 2 2 3 3 4 4 4 3 3 3 3 3 3 3 3 3 4 4 4 4 4
12 13 14 13 9 8 8 8 7 7 7 7 6 5 4 4 4 4 4 4 3 3 2 1 0 0 1 1 1 2 2 3 3 3 3 3 3 3 2 3 3 3 3 4 5 5 5 5 5
11 12 13 10 7 7 8 8 8 8 8 7 6 6 6 5 5 5 5 5 4 3 2 2 1 0 1 1 1 2 2 2 3 3 2 2 2 2 2 2 3 3 4 4 4 5 5 6 5
11 12 10 7 7 8 8 8 7 7 7 7 6 6 6 5 5 5 6 6 5 4 3 2 1 0 0 1 2 2 2 2 2 3 3 3 3 3 3 3 3 4 4 5 5 4 5 5 6
9 11 9 7 7 6 6 7 7 7 7 8 7 6 6 6 5 6 6 6 6 6 5 3 1 0 0 1 1 2 2 1 1 1 2 3 3 3 3 3 4 4 4 5 5 5 5 5 6
9 9 7 6 5 5 6 7 7 7 7 7 7 7 6 6 6 6 7 6 6 6 5 4 2 2 0 1 1 1 1 1 1 2 2 3 3 4 4 3 4 5 5 5 5 5 5 5 6
7 6 5 5 5 5 6 6 7 7 7 7 8 7 6 6 6 7 7 7 7 7 6 4 3 2 1 0 1 1 1 1 2 2 2 3 3 4 3 4 5 5 5 5 5 4 4 5 6
4 3 4 4 5 6 6 6 6 7 7 7 8 8 7 6 6 6 7 7 7 7 6 5 4 3 2 1 1 1 2 2 3 3 3 3 4 4 3 4 4 5 5 5 5 5 4 5 5
4 2 3 5 5 6 6 6 6 7 8 8 8 8 7 7 7 7 7 7 7 6 5 5 5 4 3 3 3 3 3 3 4 4 4 5 5 4 4 4 5 5 5 5 4 4 5 5 6
3 3 5 5 5 5 6 6 7 7 8 9 8 8 7 7 7 7 7 7 7 6 5 5 5 5 5 4 3 3 3 4 5 5 5 6 5 5 5 5 6 6 6 5 5 5 5 6 7
4 4 5 5 6 6 6 6 7 7 8 9 9 9 8 8 7 7 7 7 7 7 6 7 6 6 5 5 4 4 3 4 5 5 6 6 6 6 6 6 6 6 6 7 7 7 7 7 7
4 4 5 6 6 6 6 6 7 7 8 9 10 10 9 9 8 8 7 7 7 7 7 7 8 7 6 6 5 5 5 5 5 6 6 5 5 6 6 6 7 7 7 8 8 8 8 8 8
2 2 5 5 5 4 5 6 7 8 9 9 10 10 10 9 9 8 7 7 7 7 7 8 9 8 7 7 6 5 5 5 5 6 5 5 5 6 6 7 8 8 8 8 8 8 8 8 8
1 2 4 6 5 5 6 6 7 8 9 9 9 10 10 9 9 8 8 7 7 7 8 8 9 8 8 8 6 6 5 5 5 5 5 6 6 6 7 7 8 8 8 9 8 8 8 8 8
3 3 3 5 5 5 7 7 7 9 10 10 10 11 10 10 10 9 8 8 8 8 8 8 8 9 9 9 7 7 6 5 5 5 5 6 7 7 8 8 8 8 8 9 8 8 7 8 8
6 5 5 5 5 6 7 8 8 8 10 10 11 11 11 10 10 8 8 8 9 9 9 9 9 8 8 8 8 8 7 6 6 6 6 6 7 8 8 8 9 8 8 8 8 8 8 8 8
7 7 6 7 6 7 7 9 9 10 9 9 10 11 11 9 9 9 8 8 9 9 9 9 8 9 9 9 9 8 7 8 8 7 7 7 8 8 8 9 9 9 9 8 9 9 9 9 9
7 7 7 7 7 8 8 10 10 10 10 9 10 11 12 11 11 10 9 9 9 9 9 9 9 9 9 9 9 9 8 8 8 8 8 8 8 8 9 9 9 9 9 9 9 9 10 10 11
7 8 9 8 8 8 9 13 13 11 11 10 10 11 12 13 13 13 11 10 9 9 9 9 9 9 9 9 9 10 10 10 8 8 7 8 9 10 10 9 9 10 10 11 11 11 11 12 12
9 9 8 8 10 11 10 10 12 12 12 11 12 13 13 13 14 14 12 10 10 10 10 9 10 10 10 10 11 11 12 11 11 10 10 10 10 10 10 10 11 11 11 12 13 12 12 13 13
11 10 9 8 9 11 9 10 14 14 13 13 13 14 14 15 14 14 13 11 11 11 11 10 10 11 11 11 11 11 12 12 12 11 12 12 12 12 13 12 13 13 13 13 13 13 13 13 13
12 11 10 9 10 11 11 13 15 14 15 15 14 13 15 15 14 14 13 12 12 12 12 11 11 11 12 12 12 12 12 13 14 13 13 13 14 14 14 14 14 13 14 15 14 14 14 14 14
12 11 10 10 10 11 11 13 15 15 16 16 15 15 15 14 14 13 14 13 13 13 13 13 13 12 13 13 13 14 14 14 15 14 15 15 15 15 15 15 15 15 15 15 16 16 15 15 15
12 12 11 13 13 14 13 15 16 17 17 16 16 17 15 14 14 14 14 15 14 13 14 15 14 14 14 14 15 15 15 15 15 15 16 16 16 17 17 16 16 16 16 16 16 16 16 16 16
14 14 13 14 15 15 14 15 16 17 17 17 18 19 17 17 15 15 15 15 15 15 16 16 16 16 16 16 16 16 16 16 17 18 18 19 19 19 18 18 18 18 18 18 17 17 17 17 17
14 15 16 16 17 16 17 18 17 20 21 19 18 19 18 16 16 16 16 16 17 17 17 18 17 18 18 18 18 18 17 18 18 19 19 20 20 20 19 19 19 19 19 19 19 18 18 18 18
16 16 17 17 17 17 17 19 19 21 23 21 19 19 18 18 17 17 17 18 18 19 19 19 19 20 20 20 19 19 19 20 21 20 20 21 21 21 21 21 20 20 20 20 20 20 19 19 19

GEFSSGP_500_meanwind_366.txt.gz
Wind_Speed
12 12 11 11 11 12 13 13 13 12 12 10 9 9 8 8 9 8 6 6 5 5 5 4 3 3 3 3 2 2 2 2 2 3 3 3 4 4 3 3 3 3 3 2 2 2 2 3 4
12 12 12 12 12 12 13 13 13 13 12 11 9 8 8 8 8 8 7 6 5 5 4 4 3 3 3 2 2 2 2 2 2 3 2 2 3 4 4 3 3 3 3 3 2 2 3 3 3
13 12 12 13 13 13 14 14 13 13 12 11 10 9 8 8 8 7 6 6 6 5 4 4 4 4 3 3 3 2 2 2 2 2 1 2 2 3 4 3 3 3 3 3 3 2 3 3 3
12 12 12 12 13 13 13 13 13 13 12 11 11 10 9 8 8 7 7 7 6 5 5 4 4 3 3 3 2 3 2 2 2 1 1 1 1 2 3 3 2 2 2 3 3 3 3 3 3
12 12 12 13 14 14 13 13 13 12 12 12 12 11 10 9 8 8 8 7 6 5 4 3 3 3 2 3 3 3 3 2 2 1 1 0 0 1 2 2 2 2 2 3 3 4 3 3 4
11 11 12 14 14 13 13 13 13 12 12 12 12 11 11 10 9 8 8 8 7 6 4 3 3 2 2 2 3 2 2 1 1 1 1 1 1 1 1 1 2 3 3 3 3 4 4 4 4
10 10 12 13 12 11 11 12 12 11 11 11 11 11 11 11 10 9 8 8 8 6 5 4 3 2 2 2 2 2 2 2 1 1 0 1 1 1 1 2 2 3 4 4 3 4 5 5 5
9 10 12 12 12 12 11 10 12 11 10 10 10 10 10 10 10 10 9 8 8 7 6 5 4 3 2 2 2 2 2 1 1 0 1 0 1 1 2 3 3 4 4 4 3 4 5 6 6
9 8 11 11 11 11 11 9 11 11 11 10 10 10 10 10 10 9 9 9 8 8 7 6 5 4 3 3 3 2 2 2 1 1 1 0 1 2 2 3 3 4 3 3 3 4 5 5 5
8 8 10 10 10 10 10 10 10 11 12 10 10 10 10 10 10 9 8 8 8 8 7 7 5 5 4 4 3 3 3 2 2 2 2 2 2 3 3 3 3 3 3 3 4 4 4 4 5
6 6 9 10 10 10 9 9 10 10 11 10 10 10 10 10 9 8 7 7 7 7 7 7 6 5 5 5 4 4 4 3 3 3 3 3 3 3 3 3 3 3 4 4 4 4 4 4 5
6 6 7 9 9 9 9 9 9 10 10 10 10 10 10 10 9 8 7 7 7 7 7 6 6 6 5 5 4 4 3 3 3 3 3 3 3 3 3 3 4 4 4 5 5 5 5 5 6
5 6 7 6 7 7 8 8 8 9 10 11 10 10 10 10 10 9 8 8 8 7 7 7 7 7 6 6 5 4 4 3 2 2 3 3 3 3 3 3 4 5 5 5 5 5 5 6 6
4 4 5 5 7 7 7 7 7 9 10 11 11 10 9 10 10 10 9 8 8 8 8 8 7 8 7 5 5 5 4 3 3 3 3 3 3 3 3 4 4 4 4 5 5 5 5 5 6
3 3 4 5 7 7 6 6 8 9 9 10 10 11 10 10 9 10 10 9 9 9 8 8 7 7 7 6 6 6 5 4 4 4 4 3 3 3 3 4 4 4 4 5 5 5 5 5 6
1 1 3 4 5 6 5 6 8 9 9 9 10 11 11 10 9 9 9 9 9 9 9 8 8 7 7 6 6 5 4 4 4 4 4 4 4 4 4 4 5 5 5 5 5 5 5 6 6
1 1 2 3 4 4 5 6 7 9 9 8 9 10 10 10 9 9 9 8 8 8 8 8 8 8 7 7 6 6 5 5 5 5 5 5 5 5 5 4 4 5 5 4 5 6 6 5 5
3 2 2 2 3 3 5 5 6 7 8 8 8 9 9 9 9 9 9 9 9 8 8 8 8 8 7 7 7 6 6 5 5 6 5 5 4 4 4 4 5 4 4 5 4 5 5 5 5
5 4 3 3 3 4 5 6 5 6 7 8 8 8 9 9 8 9 9 9 8 8 8 8 8 7 7 7 7 6 6 6 6 6 5 5 4 5 5 5 5 5 4 4 4 4 5 5 6
6 6 4 4 4 5 6 6 5 5 6 7 8 9 9 9 8 8 9 8 8 8 8 8 8 7 7 7 6 6 6 6 6 6 5 5 5 5 5 5 4 5 4 4 5 5 6 7 7
6 7 6 6 5 5 7 7 6 5 6 7 8 9 9 9 9 8 9 8 8 8 9 9 8 8 8 7 7 6 7 7 6 5 5 5 5 5 5 5 5 5 6 6 6 7 7 8 8
6 6 8 7 6 6 7 8 7 6 6 6 8 9 9 10 10 9 9 8 9 9 9 9 9 8 8 8 7 7 7 7 7 6 6 5 5 5 5 5 6 6 6 7 8 9 9 9 10
8 8 9 9 7 7 7 9 9 9 8 7 8 8 9 10 11 11 11 10 10 10 10 9 8 8 8 8 8 8 8 8 7 7 6 5 5 5 6 7 7 7 8 9 10 10 9 10 11
10 10 10 11 11 9 8 10 11 10 10 9 9 9 9 10 11 11 11 11 11 11 10 9 9 8 8 8 8 8 8 7 7 7 7 7 7 7 8 8 9 9 10 10 11 11 10 11 11
11 11 11 12 14 11 10 11 10 10 10 9 9 10 11 11 11 12 11 12 12 11 11 11 10 9 9 9 9 9 9 9 8 9 9 9 9 10 9 9 10 11 11 10 11 11 11 12 12
12 13 13 14 14 12 12 13 11 10 9 9 10 10 11 12 12 13 13 12 12 12 11 12 11 11 11 11 11 10 10 10 10 10 11 11 11 11 11 11 11 12 12 12 11 12 12 13 13
13 14 14 14 14 14 14 13 13 11 10 10 11 11 12 14 14 14 14 14 13 12 13 14 13 12 13 13 12 12 11 11 12 12 11 11 12 12 12 12 12 13 13 13 13 14 14 14 15
15 14 16 16 15 15 15 15 13 12 12 12 12 13 13 14 14 15 15 14 13 13 14 14 13 13 13 14 13 13 12 13 13 12 12 12 12 12 13 13 14 14 14 15 15 15 15 16 16
16 16 16 17 17 17 18 16 14 14 14 14 15 15 15 15 15 16 15 15 16 15 15 15 15 14 14 14 14 13 13 13 13 13 13 14 14 14 15 15 15 16 16 15 16 16 16 16 16
17 17 18 19 19 20 20 19 17 16 16 16 17 17 17 17 18 17 17 17 16 16 16 17 16 15 15 15 15 14 15 15 15 15 15 15 16 17 17 17 17 17 17 17 17 17 17 18 17